Showing default

QIANFAN-69, 62799

Orbit data source: Space-Track

QIANFAN-69, 62799 is a Chinese payload satellite in LEO that was launched on Thu, 23 Jan 2025 UTC via a CHANG ZHENG 6A launch vehicle from the Taiyaun Space Center, China (TSC). Payload-class satellites include a variety of spacecraft equipped with specific instruments for various scientific and technological missions. These include communications satellites like Starlink; space stations such as the ISS; scientific satellites like the Hubble; Earth observation satellites from companies like Planet Labs, Umbra, and HawkEye 360; GPS; miniature CubeSats for education and research; and military/defense satellites.

Loading next visibility...
Identifier
62799, 2025-016Q
Orbit
LEO
Country
Flag of CNCN / PRC
Related business
Manufacturer
SECM
Mission
Operational Commercial Communications
Bus & Motor
QIANFAN, Unknown motor
Mass
267 kg wet, ~267 kg dry
Launch date (UTC)
2025-01-23 (9 months ago)
Launch vehicle
CHANG ZHENG 6A
Launch site
Taiyaun Space Center, China (TSC)
Object type
Payload
Rocket body
Debris
Shape & HBR
Box + 1 Pan, 1.3 m
Radar Cross Section
13.200 m², Large (>1 m²)

Expand to show TLE details & history
Last TLE update: 1 day ago

TLE from 1 day ago
0 QIANFAN-69
1 62799U 25016Q   25306.48074735  .00000081  00000-0  10615-3 0  9996
2 62799  88.9721 107.1358 0017510 100.8581 259.4541 13.50970718 41840
Epoch: 2025-11-02T11:32Z
TLE epoch observation values (Epoch: 2025-11-02T11:32:16.571Z)
Latitude
-0.00007°
Longitude
-107.92911°
Altitude
1,074.051 km
Speed
7.314 km/s
True Right ascension
07h 08m 32s
True Declination
0° 00' 00"
Sunlit
Object was in daylight at epoch
Visualization orbit readout
Latitude
Unknown
Longitude
Unknown
Altitude
Unknown
Speed
Unknown
Apparent Right ascension
Unknown
Apparent Declination
Unknown
Sunlit
N/A
Visualization observer readout
Local Sidereal Time
14:39:08
Azimuth
Unknown
Elevation
Unknown
Doppler factor
Unknown
Orbital elements
Apogee altitude
1,078.775 km
Perigee altitude
1,052.706 km
Semi-major axis
7,443.877 km
Eccentricity
0.00175
Inclination
88.9721°
RAAN
107.1358°
Arg. of periapsis
100.8581°
True anomaly
259.25692°
Mean anomaly
259.4541°
Eccentric anomaly
259.3555°
Mean motion
3.37944 °/min
Orbital period
106.53 mins
BSTAR
0.00010615
Loading maneuver chart data...
Computing Atmospheric mass density...
Loading historical data...
Loading historical data...
Loading historical data...
Loading historical data...
Loading historical data...
Loading historical data...
Loading historical data...

Documentation

Showing up to 5 results
|